Weather observations for the past three days for
Lancaster County-mc Whirter Field
Metric (Imperial)
Date Time (edt) Wind (kph) Vis. (km) Weather Sky Cond. Temperature (ºC) Relative Humidity Wind Chill (°C) Heat Index (°C) Pressure Precipitation (cm)
Air Dwpt 6 hour altimeter (cm) sea level (mb) 1 hr 3 hr 6 hr
Max. Min.
05 18:35 S 20 16.09 Fair CLR 26 8 32% 26 76.05 0.0
05 18:15 S 20 16.09 Fair CLR 26 8 32% 26 76.07 0.0
05 17:55 S 19 G 31 16.09 Fair CLR 27 9 32% 27 76.07 0.0
05 17:35 SW 22 16.09 Fair CLR 27 8 30% 26 76.07 0.0
05 17:15 S 17 G 28 16.09 A Few Clouds FEW075 27 9 32% 27 76.07 0.0
05 16:55 SW 17 G 28 16.09 A Few Clouds FEW070 27 9 32% 27 76.1 0.0
05 16:35 S 17 G 30 16.09 Partly Cloudy SCT070 SCT080 26 9 34% 26 76.12 0.0
05 16:15 SW 15 G 26 16.09 Fair CLR 26 9 34% 26 76.12 0.0
05 15:55 SW 20 G 31 16.09 A Few Clouds FEW070 27 9 32% 27 76.15 0.0
05 15:35 S 13 G 24 16.09 Mostly Cloudy SCT070 BKN080 27 10 34% 27 76.17 0.0
05 15:15 S 13 G 30 16.09 Mostly Cloudy BKN075 26 9 34% 26 76.17 0.0
05 14:55 S 20 16.09 A Few Clouds FEW075 27 8 30% 26 76.23 0.0
05 14:35 S 20 16.09 A Few Clouds FEW070 27 8 30% 26 76.23 0.0
05 14:15 SW 17 16.09 A Few Clouds FEW070 27 9 32% 27 76.25 0.0
05 13:55 SW 28 16.09 A Few Clouds FEW070 27 9 32% 27 76.25 0.0
05 13:35 SW 19 G 30 16.09 Fair CLR 27 9 32% 27 76.25 0.0
05 13:15 SW 20 G 31 16.09 Fair CLR 27 9 32% 27 76.25 0.0
05 12:55 S 19 G 33 16.09 Fair CLR 26 9 34% 26 76.28 0.0
05 12:35 SW 24 16.09 Fair CLR 26 8 32% 26 76.3 0.0
05 12:15 S 15 G 26 16.09 A Few Clouds FEW048 FEW055 25 11 42% 26 76.33 0.0
05 11:35 Vrbl 9 G 20 16.09 Fair CLR 23 12 50% 76.33 0.0
05 11:15 SW 13 G 24 16.09 Fair CLR 23 13 53% 76.35 0.0
05 10:55 SW 19 16.09 Fair CLR 23 13 53% 76.35 0.0
05 10:35 SW 17 G 26 16.09 Fair CLR 22 13 57% 76.33 0.0
05 10:15 SW 20 16.09 Fair CLR 21 13 60% 76.33 0.0
05 09:55 SW 19 16.09 Fair CLR 20 13 64% 76.33 0.0
05 09:35 SW 15 16.09 Fair CLR 20 13 64% 76.33 0.0
05 09:15 SW 17 16.09 Fair CLR 19 12 64% 76.33 0.0
05 08:55 SW 11 16.09 Fair CLR 18 12 68% 76.33 0.0
05 08:35 SW 13 16.09 Fair CLR 17 12 73% 76.33 0.0
05 08:15 S 7 16.09 Fair CLR 16 12 77% 76.33 0.0
05 07:55 S 6 16.09 Fair CLR 15 11 77% 76.3 0.0
05 07:35 Calm 16.09 Fair CLR 14 11 82% 76.28 0.0
05 07:15 Calm 16.09 Fair CLR 13 10 82% 76.28 0.0
05 06:55 Calm 16.09 Fair CLR 13 10 82% 76.28 0.0
05 06:35 Calm 16.09 Fair CLR 12 10 88% 76.28 0.0
05 06:15 Calm 16.09 Fair CLR 13 10 82% 76.25 0.0
05 05:55 Calm 16.09 Fair CLR 13 10 82% 76.23 0.0
05 05:35 Calm 16.09 Fair CLR 13 10 82% 76.23 0.0
05 05:15 S 7 16.09 Fair CLR 13 10 82% 76.2 0.0
05 04:55 SW 7 16.09 Fair CLR 13 10 82% 76.2 0.0
05 04:35 SW 9 16.09 Fair CLR 13 10 82% 76.2 0.0
05 04:15 SW 9 16.09 Fair CLR 14 10 77% 76.2 0.0
05 03:55 SW 13 16.09 Fair CLR 14 10 77% 76.2 0.0
05 03:35 SW 11 16.09 Fair CLR 14 10 77% 76.2 0.0
05 03:15 S 9 16.09 Fair CLR 15 10 72% 76.2 0.0
05 02:55 S 7 16.09 Fair CLR 15 9 68% 76.17 0.0
05 02:35 S 11 16.09 Fair CLR 15 9 68% 76.17 0.0
05 02:15 S 11 16.09 Fair CLR 15 9 68% 76.2 0.0
05 01:55 S 11 16.09 Fair CLR 15 9 68% 76.2 0.0
05 01:35 S 11 16.09 Fair CLR 16 9 63% 76.23 0.0
05 01:15 S 11 16.09 Fair CLR 16 9 63% 76.23 0.0
05 00:55 S 11 16.09 Fair CLR 16 9 63% 76.23 0.0
05 00:35 S 11 16.09 Fair CLR 16 9 63% 76.23 0.0
05 00:15 S 11 16.09 Fair CLR 16 9 63% 76.23 0.0
04 23:55 S 11 16.09 Fair CLR 17 8 56% 76.25 0.0
04 23:35 S 13 16.09 Fair CLR 17 8 56% 76.23 0.0
04 23:15 S 13 16.09 Fair CLR 17 7 52% 76.23 0.0
04 22:55 S 11 16.09 Fair CLR 17 6 49% 76.23 0.0
04 22:35 SW 7 16.09 Fair CLR 17 7 52% 76.23 0.0
04 22:15 S 7 16.09 Fair CLR 18 6 46% 76.2 0.0
04 21:55 Calm 16.09 Fair CLR 18 6 46% 76.2 0.0
04 21:35 S 7 16.09 Fair CLR 19 6 43% 76.17 0.0
04 21:15 Calm 16.09 Fair CLR 19 6 43% 76.17 0.0
04 20:55 Calm 16.09 Fair CLR 19 5 40% 76.15 0.0
04 20:35 Calm 16.09 Fair CLR 20 4 35% 76.12 0.0
04 20:15 Calm 16.09 Fair CLR 21 4 33% 76.1 0.0
04 19:55 Calm 16.09 Light Drizzle CLR 22 4 31% 76.1 0.0
04 19:35 SW 9 16.09 Fair CLR 23 4 29% 76.1 0.0
04 19:15 SW 13 16.09 Fair CLR 24 3 25% 25 76.07 0.0
04 18:55 S 11 16.09 Fair CLR 25 2 22% 25 76.07 0.0
04 18:35 S 15 16.09 Fair CLR 25 2 22% 25 76.1 0.0
04 18:15 S 19 16.09 Fair CLR 26 3 23% 26 76.1 0.0
04 17:55 S 22 16.09 Fair CLR 26 4 24% 26 76.07 0.0
04 17:35 S 17 G 26 16.09 Fair CLR 26 4 24% 26 76.07 0.0
04 17:15 S 17 16.09 Fair CLR 27 3 21% 26 76.07 0.0
04 16:55 S 17 16.09 Fair CLR 27 0 17% 26 76.1 0.0
04 16:35 S 13 G 22 16.09 Fair CLR 27 2 20% 26 76.1 0.0
04 16:15 SW 19 16.09 Fair CLR 27 4 23% 26 76.1 0.0
04 15:55 SW 11 G 28 16.09 Fair CLR 26 3 23% 26 76.12 0.0
04 15:35 S 15 G 26 16.09 Fair CLR 26 2 21% 26 76.15 0.0
04 15:15 S 13 16.09 Fair CLR 26 2 21% 26 76.17 0.0
04 14:55 S 15 16.09 Fair CLR 26 3 23% 26 76.2 0.0
04 14:35 S 13 16.09 Fair CLR 25 2 22% 25 76.2 0.0
04 14:15 S 17 16.09 Fair CLR 25 2 22% 25 76.23 0.0
04 13:55 SW 13 16.09 Fair CLR 25 4 26% 25 76.23 0.0
04 13:35 S 11 G 22 16.09 Fair CLR 24 4 27% 25 76.25 0.0
04 13:15 S 11 16.09 Fair CLR 24 5 29% 25 76.25 0.0
04 12:55 Calm 16.09 Fair CLR 24 5 29% 25 76.28 0.0
04 12:35 W 13 16.09 Fair CLR 23 3 27% 76.3 0.0
04 12:15 Vrbl 6 16.09 Fair CLR 23 4 29% 76.33 0.0
04 11:55 SW 6 G 19 16.09 Fair CLR 22 6 36% 76.35 0.0
04 11:35 Vrbl 11 16.09 Fair CLR 22 6 36% 76.35 0.0
04 11:15 W 11 16.09 Fair CLR 21 6 38% 76.35 0.0
04 10:55 W 11 16.09 Fair CLR 20 7 43% 76.35 0.0
04 10:35 SW 7 16.09 Fair CLR 20 8 46% 76.35 0.0
04 10:15 SW 7 16.09 Fair CLR 18 7 49% 76.35 0.0
04 09:55 W 7 16.09 Fair CLR 17 7 52% 76.35 0.0
04 09:35 Vrbl 9 16.09 Fair CLR 16 7 55% 76.35 0.0
04 09:15 Calm 16.09 Fair CLR 15 8 63% 76.35 0.0
04 08:55 Vrbl 6 16.09 Fair CLR 14 9 72% 76.35 0.0
04 08:35 SW 9 16.09 Fair CLR 13 9 77% 76.33 0.0
04 07:55 Calm 16.09 Fair CLR 10 9 94% 76.35 0.0
04 07:35 Calm 16.09 Fair CLR 9 8 94% 76.35 0.0
04 07:15 Calm 16.09 Fair CLR 7 6 93% 76.33 0.0
04 06:55 Calm 12.87 Fair CLR 7 7 100% 76.33 0.0
04 06:35 Calm 16.09 Fair CLR 8 7 93% 76.33 0.0
04 06:15 Calm 16.09 Fair CLR 8 7 93% 76.33 0.0
04 05:55 Calm 16.09 Fair CLR 8 7 93% 76.33 0.0
04 05:35 Calm 16.09 Fair CLR 9 7 87% 76.33 0.0
04 05:15 Calm 16.09 Fair CLR 9 7 87% 76.33 0.0
04 04:55 Calm 16.09 Fair CLR 10 7 82% 76.3 0.0
04 04:35 Calm 16.09 Fair CLR 10 7 82% 76.3 0.0
04 04:15 Calm 16.09 Fair CLR 10 7 82% 76.3 0.0
04 03:55 Calm 16.09 Fair CLR 10 7 82% 76.28 0.0
04 03:35 Calm 16.09 Fair CLR 10 7 82% 76.3 0.0
04 03:15 Calm 16.09 Fair CLR 10 7 82% 76.3 0.0
04 02:55 Calm 16.09 Fair CLR 9 6 82% 76.3 0.0
04 02:35 Calm 16.09 Fair CLR 11 6 72% 76.3 0.0
04 02:15 Calm 16.09 Fair CLR 11 6 72% 76.3 0.0
04 01:55 Calm 16.09 Fair CLR 9 6 82% 76.3 0.0
04 01:35 Calm 16.09 Fair CLR 11 6 72% 76.33 0.0
04 01:15 Calm 16.09 Fair CLR 11 5 67% 76.33 0.0
04 00:35 Calm 16.09 Fair CLR 10 6 76% 76.35 0.0
04 00:15 Calm 16.09 Fair CLR 10 6 76% 76.35 0.0
03 23:55 Calm 16.09 Fair CLR 11 5 67% 76.35 0.0
03 23:35 Calm 16.09 Fair CLR 11 6 72% 76.35 0.0
03 23:15 Calm 16.09 Fair CLR 12 5 63% 76.35 0.0
03 22:55 Calm 16.09 Fair CLR 12 5 63% 76.35 0.0
03 22:35 Calm 16.09 Fair CLR 13 5 59% 76.33 0.0
03 22:15 Calm 16.09 Fair CLR 14 5 55% 76.33 0.0
03 21:55 Calm 16.09 Fair CLR 14 5 55% 76.3 0.0
03 21:35 Calm 16.09 Fair CLR 14 5 55% 76.3 0.0
03 21:15 Calm 16.09 Fair CLR 14 6 59% 76.28 0.0
03 20:55 Calm 16.09 Fair CLR 15 5 51% 76.28 0.0
03 20:35 Calm 16.09 Fair CLR 16 5 48% 76.25 0.0
03 20:15 Calm 16.09 Fair CLR 17 5 45% 76.25 0.0
03 19:55 Calm 16.09 Fair CLR 17 5 45% 76.25 0.0
03 19:35 SW 9 16.09 Fair CLR 18 5 43% 76.25 0.0
03 19:15 SW 11 16.09 Fair CLR 19 4 37% 76.25 0.0
03 18:55 SW 11 16.09 Fair CLR 20 4 35% 76.25 0.0
03 18:35 SW 11 16.09 Fair CLR 20 3 33% 76.25 0.0
03 18:15 W 9 16.09 Fair CLR 20 3 33% 76.25 0.0
03 17:55 SW 9 16.09 Fair CLR 20 2 30% 76.25 0.0
03 17:35 Vrbl 9 G 22 16.09 Fair CLR 20 3 33% 76.25 0.0
03 17:15 SW 15 16.09 Fair CLR 21 3 31% 76.25 0.0
03 16:55 SW 13 16.09 Fair CLR 21 3 31% 76.28 0.0
03 16:35 Vrbl 9 16.09 Fair CLR 21 3 31% 76.28 0.0
03 16:15 SW 15 16.09 Fair CLR 20 3 33% 76.3 0.0
03 15:55 SW 22 16.09 Fair CLR 21 3 31% 76.33 0.0
03 15:35 Vrbl 7 G 22 16.09 Fair CLR 20 3 33% 76.35 0.0
03 15:15 W 9 16.09 Fair CLR 20 2 30% 76.38 0.0
03 14:55 W 17 16.09 Fair CLR 20 3 33% 76.4 0.0
03 14:35 Calm 16.09 Fair CLR 19 3 35% 76.43 0.0
03 14:15 Vrbl 11 16.09 A Few Clouds FEW060 19 3 35% 76.45 0.0
03 13:55 Vrbl 7 16.09 A Few Clouds FEW060 19 3 35% 76.45 0.0
03 13:35 Vrbl 11 16.09 A Few Clouds FEW060 18 3 37% 76.45 0.0
03 13:15 W 11 16.09 Partly Cloudy SCT060 17 2 37% 76.48 0.0
03 12:55 Vrbl 6 G 19 16.09 Fair CLR 17 2 37% 76.5 0.0
03 12:35 Vrbl 7 16.09 Fair CLR 17 2 37% 76.53 0.0
03 12:15 Vrbl 6 G 19 16.09 Fair CLR 17 2 37% 76.56 0.0
03 11:55 Vrbl 7 G 20 16.09 Fair CLR 16 2 39% 76.56 0.0
03 11:35 NW 9 G 22 16.09 Fair CLR 16 2 39% 76.58 0.0
03 11:15 Calm 16.09 Fair CLR 16 2 39% 76.58 0.0
03 10:55 NW 15 16.09 Fair CLR 15 2 42% 76.56 0.0
03 10:35 NE 11 16.09 Fair CLR 15 2 42% 76.56 0.0
03 10:15 Vrbl 9 16.09 Fair CLR 15 4 48% 76.56 0.0
03 09:55 N 11 16.09 Fair CLR 14 3 48% 76.56 0.0
03 09:35 NE 9 16.09 Fair CLR 13 4 55% 76.56 0.0
03 09:15 N 9 16.09 Fair CLR 13 4 55% 76.56 0.0
03 08:55 Vrbl 7 16.09 Fair CLR 11 5 67% 76.53 0.0
03 08:35 Vrbl 7 16.09 Fair CLR 10 7 82% 9 76.56 0.0
03 08:15 Calm 16.09 Fair CLR 8 7 93% 76.53 0.0
03 07:55 Calm 16.09 Fair CLR 6 6 100% 76.5 0.0
03 07:35 Calm 11.27 Fair CLR 5 5 100% 76.5 0.0
03 07:15 Calm 14.48 Fair CLR 5 4 93% 76.48 0.0
03 06:30 Calm 11.27 Fair CLR 4 4 100% 76.4 0.0
03 06:15 Calm 12.87 Fair CLR 4 4 100% 76.4 0.0
03 05:55 Calm 12.87 Fair CLR 5 4 93% 76.38 0.0
03 05:35 Calm 4.83 Fog/Mist CLR 5 4 93% 76.38 0.0
03 05:15 Calm 12.87 Fair CLR 5 4 93% 76.35 0.0
03 04:55 Calm 3.22 Fog/Mist CLR 5 4 93% 76.35 0.0
03 04:35 Calm 14.48 Fair CLR 5 5 100% 76.33 0.0
03 04:15 Calm 9.66 Fog/Mist CLR 5 5 100% 76.3 0.0
03 03:55 Calm 16.09 Fair CLR 6 6 100% 76.3 0.0
03 03:35 Calm 14.48 Fair CLR 6 6 100% 76.28 0.0
03 03:15 NE 6 16.09 Fair CLR 6 5 93% 76.25 0.0
03 02:55 Calm 12.87 Fair CLR 6 5 93% 76.25 0.0
03 02:35 Calm 12.87 A Few Clouds FEW016 FEW025 6 5 93% 76.25 0.0
03 02:15 Calm 4.83 Fog/Mist SCT016 SCT023 6 5 93% 76.25 0.0
03 01:55 Calm 0.40 Fog SCT001 BKN023 BKN031 6 6 100% 76.25 0.0
03 01:35 Calm 1.21 Fog/Mist NULL 7 6 93% 76.25 0.0
03 01:15 W 6 1.21 Fog/Mist BKN018 BKN026 BKN033 7 6 93% 76.25 0.0
03 00:55 Calm 16.09 A Few Clouds FEW035 FEW042 7 6 93% 76.23 0.0
03 00:35 Calm 16.09 A Few Clouds FEW037 FEW043 7 7 100% 76.23 0.0
03 00:15 Calm 16.09 A Few Clouds FEW042 FEW047 FEW120 8 7 93% 76.2 0.0
02 23:55 Calm 16.09 Partly Cloudy FEW040 FEW048 SCT120 8 7 93% 76.23 0.0
02 23:35 Calm 16.09 Mostly Cloudy BKN110 8 7 93% 76.2 0.0
02 23:15 Calm 16.09 Overcast FEW075 OVC110 9 8 94% 76.2 0.0
02 22:55 Calm 16.09 Overcast BKN080 OVC110 9 7 87% 76.17 0.0
02 22:35 Calm 16.09 Overcast FEW085 OVC110 8 7 93% 76.15 0.0
02 22:15 Calm 16.09 Mostly Cloudy BKN085 BKN100 BKN120 8 6 87% 76.12 0.0
02 21:55 Calm 16.09 Mostly Cloudy BKN080 BKN110 8 6 87% 76.12 0.0
02 21:35 Calm 16.09 Mostly Cloudy FEW060 FEW085 BKN110 9 6 82% 76.07 0.0
02 21:15 Calm 16.09 Mostly Cloudy FEW060 SCT075 BKN110 9 6 82% 76.05 0.0
02 20:55 Calm 16.09 A Few Clouds FEW038 FEW075 10 7 82% 76.05 0.0
02 20:30 Calm 16.09 Fair CLR 11 6 72% 76 0.0
02 20:15 Calm 16.09 Fair CLR 11 6 72% 76 0.0
02 19:55 Calm 16.09 Fair CLR 12 6 67% 75.97 0.0
02 19:35 Calm 16.09 A Few Clouds FEW090 14 5 55% 75.95 0.0
02 19:15 Calm 16.09 Mostly Cloudy BKN090 15 5 51% 75.95 0.0
Date Time (edt) Wind (kph) Vis. (km) Weather Sky Cond. Air Dwpt Max. Min. Relative Humidity Wind Chill (°C) Heat Index (°C) altimeter (cm) sea level (mb) 1 hr 3 hr 6 hr
6 hour
Temperature (ºC) Pressure Precipitation (cm)